Location: Robert Ferguson Observatory
(38.4385°N, 122.5078°W)
Time: 23:29:08
(UTC-07:00)

Daily predictions for brighter satellites

Satellite Brightness Start Highest point End
(mag) Time Altitude Azimuth Time Altitude Azimuth Time Altitude Azimuth
NOSS 2-1 (D) 4.0 20:09:42 10° SW 20:13:29 60° NW 20:17:44 10° NNE
NOSS 2-1 (C) 4.0 20:10:43 10° SW 20:14:30 60° NW 20:18:47 10° NNE
Tiangong 1 2.3 20:12:51 10° WNW 20:15:47 37° N 20:18:42 10° ENE
Meteor 1-29 3.5 20:16:22 10° N 20:19:48 65° WNW 20:23:13 10° SSW
Cosmos 2219 4.1 20:14:26 10° NNW 20:19:52 52° WSW 20:25:17 10° S
Lacrosse 5 3.8 20:19:14 10° NNW 20:22:42 18° NNE 20:26:10 10° ENE
Helios 1B rocket 3.6 20:22:42 10° N 20:26:42 49° WNW 20:30:39 10° SSW
Cosmos 1975 3.8 20:26:21 10° SSE 20:29:52 28° E 20:33:23 10° NNE
Cosmos 1697 Rocket 3.7 20:26:33 10° SSE 20:31:00 24° ESE 20:35:26 10° NE
Cosmos 2278 3.7 20:30:13 10° SSW 20:35:52 78° ESE 20:41:35 10° NNE
Okean 2 3.4 20:32:01 10° N 20:36:12 86° ENE 20:40:20 10° S
Meteor 2-4 Rocket 4.2 20:31:16 10° NNW 20:37:06 69° W 20:42:59 10° S
H-2A R/B 2.8 20:34:01 10° SSE 20:37:50 60° ENE 20:41:43 10° N
Lacrosse 5 rocket 1.9 20:35:21 10° NNW 20:38:47 35° NE 20:41:15 16° ESE
Meteor 2-16 Rocket 4.4 20:33:10 10° S 20:39:14 88° E 20:45:20 10° N
CZ-4 DEB 4.0 20:44:01 18° ESE 20:45:14 23° ENE 20:47:47 10° NNE
Cosmos 1821 Rocket 4.5 20:41:32 10° SSW 20:47:34 64° W 20:53:38 10° N
EO 1 Delta rocket 3.9 20:43:17 10° NNE 20:48:01 79° E 20:53:28 10° S
Cosmos 2369 3.7 20:43:57 10° SSW 20:49:37 90° ESE 20:55:21 10° NNE
Cosmos 1605 Rocket 4.0 20:44:13 10° S 20:50:33 77° E 20:56:50 10° N
Cosmos 1980 Rocket 3.3 20:49:21 10° SSE 20:53:38 23° E 20:57:57 10° NE
CZ-2D R/B 3.6 20:52:51 10° S 20:56:41 68° W 21:00:34 10° NNW
Meteor 1-12 Rocket 4.2 20:55:21 10° S 21:01:03 78° E 21:06:53 10° NNE
H-2A R/B 3.4 21:00:47 19° E 21:01:36 21° ENE 21:04:41 10° NNE
Cosmos 1461 2.8 20:58:39 10° NNW 21:02:42 78° WSW 21:05:19 20° SSE
Hubble Space Telescope 3.1 21:01:08 10° SW 21:02:47 12° SSW 21:04:26 10° S
Cosmos 1939 Rocket 3.7 21:02:42 25° ESE 21:04:19 35° ENE 21:08:07 10° N
Cosmos 1626 Rocket 3.4 21:02:11 10° N 21:06:35 73° E 21:10:03 16° SSE
Cosmos 1455 Rocket 4.3 21:05:17 10° SSW 21:09:23 43° W 21:13:33 10° N
OAO 2 Rocket 3.5 21:04:31 10° WSW 21:09:25 56° S 21:11:59 27° ESE
NOSS 3-4 (A) 4.3 21:06:23 10° NW 21:13:21 61° WSW 21:20:20 12° SSE
NOSS 3-4 (C) 4.2 21:06:30 10° NW 21:13:29 62° WSW 21:20:24 12° SSE
Cosmos 2298 Rocket 4.2 21:09:07 10° N 21:14:21 56° ENE 21:17:04 28° SE
Cosmos 1500 3.1 21:12:18 19° S 21:14:52 62° E 21:18:36 10° NNE
Cosmos 1602 Rocket 3.5 21:11:02 10° N 21:15:31 88° W 21:19:01 16° S
Cosmos 1346 Rocket 4.3 21:12:09 10° NNW 21:15:47 36° W 21:19:28 10° SSW
deb Chang Zheng 4 4.2 21:12:14 10° NNE 21:16:19 34° E 21:16:53 33° ESE
ASTEX 1 4.4 21:14:40 10° NNE 21:18:51 26° E 21:18:51 26° E
Envisat 3.2 21:17:38 29° SE 21:20:00 52° ENE 21:24:56 10° N
Cosmos 1656 3.7 21:17:03 10° SSW 21:22:42 86° WNW 21:28:18 10° NNE
Cosmos 2227 Rocket 2.7 21:17:44 10° NNW 21:23:17 57° WSW 21:28:07 14° S
Cosmos 1937 Rocket 3.9 21:20:04 10° N 21:25:07 45° ENE 21:26:44 35° ESE
ALOS 4.0 21:22:37 10° SSW 21:26:45 31° W 21:30:55 10° NNW
Cosmos 2084 3.6 21:23:07 10° NNW 21:27:09 55° NE 21:28:01 45° E
USA 186 3.9 21:25:59 10° SSW 21:28:38 24° W 21:31:10 10° NW
Cosmos 1340 3.9 21:25:36 10° NNE 21:28:12 26° NE 21:28:12 26° NE
H-2A R/B 4.2 21:29:30 10° ENE 21:29:30 10° ENE 21:30:05 10° NE
Iridium 4 Rocket 3.5 21:25:01 10° N 21:30:05 73° W 21:33:55 15° S
Cosmos 220 Rocket 4.2 21:28:17 10° NNW 21:32:28 65° WSW 21:34:19 31° S
RESURS DK-1 2.9 21:29:09 10° N 21:33:05 40° ENE 21:33:15 40° ENE
Cosmos 1459 Rocket 3.8 21:27:59 14° S 21:33:06 66° E 21:39:09 10° NNE
YAOGAN 6 4.1 21:35:57 24° NE 21:35:57 24° NE 21:38:09 10° NNE
Cosmos 2297 Rocket 2.6 21:33:12 10° NNW 21:38:45 60° WSW 21:42:12 23° S
Cosmos 990 Rocket 4.4 21:34:06 10° N 21:39:08 44° ENE 21:39:55 41° E
Cosmos 1515 4.2 21:35:40 10° NNW 21:39:28 58° W 21:40:53 34° SSW
Cosmos 2150 Rocket 3.8 21:35:37 10° NNW 21:40:47 85° ENE 21:42:31 43° SSE
OTV 4 2.6 21:42:45 10° W 21:44:11 21° WSW 21:44:11 21° WSW
SPOT 1/Viking Rocket 4.3 21:47:39 35° ENE 21:47:43 35° ENE 21:52:25 10° N
Cosmos 1606 Rocket 3.6 21:48:11 57° ENE 21:48:11 57° ENE 21:52:11 10° NNE
Cosmos 1743 2.6 21:50:14 87° WNW 21:50:14 87° WNW 21:54:09 10° N
ERS-1 Rocket 3.4 21:47:58 27° S 21:50:39 59° W 21:55:37 10° NNW
DELTA 2 R/B (1) 3.5 21:45:59 10° WNW 21:51:31 70° SSW 21:52:32 56° SE
Tiangong 1 2.6 21:49:39 10° WNW 21:51:51 34° NNW 21:51:51 34° NNW
MetOp-A 4.0 21:56:54 60° ESE 21:57:39 68° ENE 22:02:58 10° N
Milstar 3 Cent rocket 4.2 21:38:19 10° W 21:58:28 53° SSW 22:03:04 37° SE
SL-19 R/B 4.4 21:53:45 10° NNE 21:58:20 47° ENE 21:58:20 47° ENE
Cosmos 1898 Rocket 4.0 21:57:14 10° NNW 22:02:25 57° WSW 22:04:04 39° SSW
Cosmos 1802 Rocket 4.0 21:59:05 22° S 22:03:30 83° W 22:09:58 10° N
Cosmos 1763 Rocket 3.2 22:03:14 74° SSE 22:03:38 80° ESE 22:08:43 10° NNE
Lacrosse 5 1.7 22:01:20 10° NW 22:06:25 77° NE 22:06:31 77° ENE
SL-08 R/B 4.3 22:05:13 53° SSE 22:06:41 73° E 22:12:51 10° N
SPOT 5 2.9 22:09:27 74° SSW 22:09:53 82° WSW 22:14:47 10° NNW
Cosmos 1726 Rocket 4.0 22:12:32 56° N 22:12:32 56° N 22:16:03 10° N
Cosmos 1697 Rocket 3.8 22:09:17 10° SW 22:14:39 43° WNW 22:20:02 10° N
Lacrosse 5 rocket 3.4 22:15:05 10° WNW 22:17:00 18° WSW 22:17:00 18° WSW
Cosmos 2016 Rocket 4.0 22:16:20 38° SSW 22:18:49 75° W 22:25:02 10° N
SL-16 R/B 3.8 22:24:36 22° NE 22:24:36 22° NE 22:26:38 10° NE
NOAA 11 4.2 22:24:16 69° NE 22:24:16 69° NE 22:29:20 10° N
Cosmos 841 Rocket 3.6 22:25:13 74° W 22:25:21 74° WNW 22:30:35 10° NNE
ARGOS 3.3 22:35:15 69° N 22:35:15 69° N 22:39:59 10° NNW
USA 245 4.4 22:35:44 74° SW 22:36:07 77° W 22:42:31 10° NNW
USA 215 3.8 22:35:05 43° ENE 22:36:08 46° NE 22:42:18 10° NW
Cosmos 1980 Rocket 3.1 22:31:49 10° SW 22:37:15 47° WNW 22:42:45 10° N
H-2A R/B 3.7 22:37:56 27° W 22:37:56 27° W 22:41:02 10° NW
Terra 3.5 22:45:52 26° NNE 22:45:52 26° NNE 22:48:07 10° N
BREEZE-M DEB (TANK) 3.9 22:43:37 10° W 22:53:09 49° NNW 22:53:35 47° N
Tsikada Rocket 4.1 22:46:48 10° NNW 22:53:10 70° W 22:53:10 70° W
Cosmos 2263 Rocket 3.4 23:01:48 10° NNW 23:05:14 34° NNE 23:05:14 34° NNE
H-2A R/B 3.4 23:10:09 33° NNW 23:10:09 33° NNW 23:12:51 10° NNW
Cosmos 2322 Rocket 3.4 23:11:36 36° N 23:11:36 36° N 23:14:57 10° NNE
